Grand Island, NE

11:52 PM CDT on July 27, 2017 (GMT -0500)
Central Nebraska Regional

Weather History for KGRI - October, 2012

Change the Weather History Date:

Tuesday, October 16, 2012

  Actual Average Record
Temperature  
Mean Temperature 67 °F 52 °F  
Max Temperature 81 °F 65 °F 90 °F (1910)
Min Temperature 53 °F 40 °F 22 °F (1948)
Degree Days  
Heating Degree Days 0 13  
Month to date heating degree days 204 167  
Since 1 July heating degree days 274 282  
Cooling Degree Days 2 0  
Month to date cooling degree days 4 10  
Year to date cooling degree days 1507 1033  
Growing Degree Days 18 (Base 50)    
Moisture  
Dew Point 42 °F    
Average Humidity 44    
Maximum Humidity 67    
Minimum Humidity 21    
Precipitation  
Precipitation 0.00 in 0.06 in 1.20 in (1968)
Month to date precipitation 0.49 1.06  
Year to date precipitation 9.07 24.06  
Snow  
Snow 0.00 in 0.10 in T in (1984)
Month to date snowfall 0.0 0.3  
Since 1 July snowfall 0.0 0.4  
Since 1 September snowfall 0.0 0.4  
Snow Depth 0.00 in    
Sea Level Pressure  
Sea Level Pressure 29.55 in    
Wind  
Wind Speed 13 mph (WSW)    
Max Wind Speed 22 mph    
Max Gust Speed 28 mph    
Visibility 10 miles    
Events      
T = Trace of Precipitation, MM = Missing Value Source: NWS Daily Summary

Daily Weather History Graph

Daily Weather History Graph

Search for Another Location

Airport or City:

Trip Planner

Search our weather history database for the weather conditions in past years. The results will help you decide how hot, cold, wet, or windy it might be!

Date:

Astronomy

Oct. 16, 2012 Rise Set
Actual Time 7:46 AM CDT 6:50 PM CDT
Civil Twilight 7:18 AM CDT 7:18 PM CDT
Nautical Twilight 6:46 AM CDT 7:49 PM CDT
Astronomical Twilight 6:14 AM CDT 8:21 PM CDT
Moon 9:11 AM CDT (10/16) 7:34 PM CDT (10/16)
Length of Visible Light 11h 59m
Length of Day
11h 04m
New Moon, 2% of the Moon is Illuminated
Oct 16
New Moon
Oct 21
First Quarter
Oct 29
Full
Nov 6
Last Quarter
Nov 13
New

Hourly Weather History & Observations

Time (CDT) Temp. Dew Point Humidity Pressure Visibility Wind Dir Wind Speed Gust Speed Precip Events Conditions
12:53 AM 62.1 °F 46.0 °F 56% 29.67 in 10.0 mi South 13.8 mph - N/A   Clear
1:53 AM 61.0 °F 46.0 °F 58% 29.64 in 10.0 mi South 11.5 mph - N/A   Clear
2:53 AM 57.9 °F 46.9 °F 67% 29.61 in 10.0 mi South 11.5 mph - N/A   Clear
3:53 AM 60.1 °F 46.9 °F 62% 29.58 in 10.0 mi SW 17.3 mph - N/A   Clear
4:53 AM 59.0 °F 44.6 °F 59% 29.61 in 10.0 mi WSW 15.0 mph - N/A   Clear
5:53 AM 55.0 °F 43.0 °F 64% 29.58 in 10.0 mi West 15.0 mph - N/A   Clear
6:53 AM 54.0 °F 39.0 °F 57% 29.62 in 10.0 mi West 12.7 mph - N/A   Clear
7:53 AM 54.0 °F 39.0 °F 57% 29.65 in 10.0 mi West 9.2 mph - N/A   Clear
8:53 AM 57.9 °F 39.9 °F 51% 29.67 in 10.0 mi WNW 10.4 mph - N/A   Clear
9:53 AM 64.0 °F 43.0 °F 46% 29.67 in 10.0 mi NW 12.7 mph - N/A   Clear
10:53 AM 69.1 °F 43.0 °F 39% 29.66 in 10.0 mi NNW 16.1 mph - N/A   Clear
11:53 AM 71.1 °F 44.1 °F 38% 29.62 in 10.0 mi NNW 17.3 mph - N/A   Clear
12:53 PM 73.9 °F 43.0 °F 33% 29.59 in 10.0 mi NW 13.8 mph 18.4 mph N/A   Clear
1:53 PM 77.0 °F 42.1 °F 29% 29.55 in 10.0 mi WNW 13.8 mph - N/A   Clear
2:53 PM 79.0 °F 37.9 °F 23% 29.52 in 10.0 mi WNW 11.5 mph - N/A   Clear
3:53 PM 81.0 °F 37.9 °F 21% 29.49 in 10.0 mi West 10.4 mph - N/A   Clear
4:53 PM 79.0 °F 36.0 °F 21% 29.47 in 10.0 mi WSW 8.1 mph - N/A   Clear
5:53 PM 75.9 °F 37.0 °F 24% 29.46 in 10.0 mi SW 11.5 mph - N/A   Clear
6:53 PM 71.1 °F 39.0 °F 31% 29.45 in 10.0 mi SSW 8.1 mph - N/A   Clear
7:53 PM 72.0 °F 39.9 °F 31% 29.45 in 10.0 mi SSW 12.7 mph - N/A   Clear
8:53 PM 68.0 °F 41.0 °F 37% 29.42 in 10.0 mi South 9.2 mph - N/A   Clear
9:53 PM 66.9 °F 39.9 °F 37% 29.40 in 10.0 mi South 13.8 mph - N/A   Clear
10:53 PM 68.0 °F 43.0 °F 40% 29.37 in 10.0 mi South 18.4 mph - N/A   Partly Cloudy
11:53 PM 69.1 °F 43.0 °F 39% 29.36 in 10.0 mi SSW 18.4 mph 25.3 mph N/A   Clear